sat.trackr.live / text

‹ back to catalog

STARLINK-31519

NORAD 59546 · 2024-074N

PAYLOAD ACTIVE UNKNOWN

§ Identity

Operator
Country
US
Launch date
2024-04-18
Launch site
AFETR
Launch vehicle
Mass (kg)
RCS (m²)

Purposes: comms

External: N2YO · Heavens-Above · Gunter

§ Orbital elements

Epoch: 2026-05-24T16:51:09.489888Z

Period
94.27 min
Inclination
43.0000°
Eccentricity
0.0001197
Mean motion
15.27579417 rev/d
Perigee alt
482.2 km
Apogee alt
483.9 km
Semi-major
6,861.2 km
B*
1.6720e-4
RAAN
273.8884°
Arg perigee
269.8450°
Mean anomaly
90.2265°
Rev number
11,764

§ Raw data

STARLINK-315191 59546U 24074N   26144.70219317  .00004341  00000+0  16720-3 0  99932 59546  43.0000 273.8884 0001197 269.8450  90.2265 15.27579417117641

JSON: /api/v1/satellites/59546 · /tle

For live sub-satellite position, see the globe view (requires WebGL).

§ Visibility from observer

Set your observer location to see the next 7 days of passes ≥ 10°. The values pass through the URL so the page stays shareable.

No JS? Fill the form by hand. The geolocation button needs JavaScript.